Weather History for Morristown, NJ

Change the Weather History Date:

Wednesday, May 29, 2013

  Actual Average Record
Temperature  
Mean Temperature 72 °F -  
Max Temperature 84 °F 76 °F 91 °F (1977)
Min Temperature 59 °F 51 °F 31 °F (1936)
Cooling Degree Days 6    
Growing Degree Days 22 (Base 50)    
Moisture  
Dew Point 61 °F    
Average Humidity 84    
Maximum Humidity 100    
Minimum Humidity 51    
Precipitation  
Precipitation 0.05 in - - ()
Sea Level Pressure  
Sea Level Pressure 30.08 in    
Wind  
Wind Speed 1 mph (SW)    
Max Wind Speed 12 mph    
Max Gust Speed 22 mph    
Visibility 3 miles    
Events Fog    
Averages and records for this station are not official NWS values.
T = Trace of Precipitation, MM = Missing Value Source: NWS Daily Summary

Daily Weather History Graph

Daily Weather History Graph

Search for Another Location

Airport:

Trip Planner

Search our weather history database for the weather conditions in past years. The results will help you decide how hot, cold, wet, or windy it might be!

Date:

Astronomy

May. 29, 2013 Rise Set
Actual Time 5:29 AM EDT 8:20 PM EDT
Civil Twilight 4:57 AM EDT 8:53 PM EDT
Nautical Twilight 4:16 AM EDT 9:34 PM EDT
Astronomical Twilight 3:29 AM EDT 10:21 PM EDT
Moon No Moon Rise 10:27 AM EDT (5/29)
Length of Visible Light 15h 56m
Length of Day
14h 51m
Waning Gibbous, 73% of the Moon is Illuminated
May 29
Waning Gibbous
May 31
Last Quarter
Jun 8
New
Jun 16
First Quarter
Jun 23
Full

Hourly Weather History & Observations

Time (EDT) Temp. Heat Index Dew Point Humidity Pressure Visibility Wind Dir Wind Speed Gust Speed Precip Events Conditions
12:15 AM 59.0 °F - 57.2 °F 94% 30.13 in 0.2 mi Calm Calm - 0.02 in Fog Fog
12:35 AM 59.0 °F - 57.2 °F 94% 30.13 in 0.2 mi Calm Calm - 0.03 in Fog Fog
12:55 AM 59.0 °F - 57.2 °F 94% 30.13 in 0.2 mi Calm Calm - N/A Fog Fog
1:15 AM 59.0 °F - 57.2 °F 94% 30.13 in 0.2 mi Calm Calm - 0.01 in Fog Fog
1:35 AM 59.0 °F - 57.2 °F 94% 30.12 in 0.2 mi Calm Calm - 0.02 in Fog Fog
1:55 AM 59.0 °F - 57.2 °F 94% 30.10 in 0.2 mi Calm Calm - N/A Fog Fog
2:15 AM 59.0 °F - 57.2 °F 94% 30.10 in 0.2 mi Calm Calm - 0.01 in Fog Fog
2:35 AM 59.0 °F - 57.2 °F 94% 30.10 in 0.2 mi Calm Calm - 0.02 in Fog Fog
2:55 AM 59.0 °F - 57.2 °F 94% 30.09 in 0.2 mi Calm Calm - 0.01 in Fog Fog
3:15 AM 59.0 °F - 57.2 °F 94% 30.08 in 0.2 mi Calm Calm - 0.01 in Fog Fog
3:35 AM 59.0 °F - 57.2 °F 94% 30.08 in 0.2 mi Calm Calm - 0.01 in Fog Fog
3:55 AM 59.0 °F - 57.2 °F 94% 30.08 in 0.2 mi Calm Calm - N/A Fog Fog
4:15 AM 59.0 °F - 57.2 °F 94% 30.08 in 0.2 mi Calm Calm - N/A Fog Fog
4:35 AM 59.0 °F - 57.2 °F 94% 30.08 in 0.2 mi Calm Calm - N/A Fog Fog
4:55 AM 60.8 °F - 57.2 °F 88% 30.08 in 0.2 mi Calm Calm - N/A Fog Fog
5:15 AM 60.8 °F - 57.2 °F 88% 30.08 in 0.2 mi Calm Calm - N/A Fog Fog
5:35 AM 60.8 °F - 57.2 °F 88% 30.08 in 0.2 mi Calm Calm - N/A Fog Fog
5:55 AM 60.8 °F - 57.2 °F 88% 30.09 in 0.2 mi Calm Calm - N/A Fog Fog
6:15 AM 60.8 °F - 57.2 °F 88% 30.09 in 0.2 mi Calm Calm - N/A Fog Fog
6:35 AM 60.8 °F - 59.0 °F 94% 30.09 in 0.2 mi Calm Calm - N/A Fog Fog
6:45 AM 59.0 °F - 57.2 °F 94% 30.10 in 0.1 mi Calm Calm - N/A Fog Fog
7:45 AM 59.0 °F - 59.0 °F 100% 30.10 in 0.8 mi Calm Calm - N/A   Mist
8:45 AM 60.8 °F - 59.0 °F 94% 30.10 in 1.0 mi Calm Calm - N/A   Overcast
9:45 AM 62.6 °F - 60.8 °F 94% 30.11 in 2.0 mi Calm Calm - N/A   Overcast
10:45 AM 68.0 °F - 64.4 °F 88% 30.10 in 2.0 mi SSW 5.8 mph - N/A   Overcast
11:45 AM 69.8 °F - 66.2 °F 88% 30.09 in 4.0 mi SW 10.4 mph - N/A   Mostly Cloudy
12:45 PM 71.6 °F - 66.2 °F 83% 30.09 in 6.0 mi SW 9.2 mph - N/A   Mostly Cloudy
1:45 PM 78.8 °F - 68.0 °F 69% 30.07 in 6.0 mi WSW 8.1 mph - N/A   Haze
2:45 PM 80.6 °F 83.2 °F 68.0 °F 65% 30.06 in 6.0 mi WSW 11.5 mph - N/A   Haze
3:45 PM 84.2 °F 87.3 °F 68.0 °F 58% 30.04 in 7.0 mi WSW 10.4 mph 18.4 mph N/A   Mostly Cloudy
4:45 PM 84.2 °F 86.6 °F 66.2 °F 55% 30.03 in 7.0 mi WSW 11.5 mph 21.9 mph N/A   Mostly Cloudy
5:52 PM 84.2 °F 85.6 °F 64.4 °F 51% 30.02 in 7.0 mi West 9.2 mph 15.0 mph N/A   Overcast
6:45 PM 84.2 °F 86.6 °F 66.2 °F 55% 30.01 in 10.0 mi WSW 6.9 mph - N/A   Scattered Clouds
7:45 PM 82.4 °F 83.9 °F 64.4 °F 54% 30.00 in 7.0 mi SW 6.9 mph - N/A   Scattered Clouds
8:48 PM 73.4 °F - 66.2 °F 78% 30.02 in 7.0 mi Calm Calm - N/A   Scattered Clouds
9:45 PM 71.6 °F - 66.2 °F 83% 30.03 in 7.0 mi Calm Calm - N/A   Scattered Clouds
10:55 PM 75.2 °F - 64.4 °F 69% 30.06 in 10.0 mi SW 3.5 mph - N/A   Clear
11:15 PM 75.2 °F - 64.4 °F 69% 30.06 in 10.0 mi Calm Calm - N/A   Clear
11:35 PM 73.4 °F - 64.4 °F 73% 30.07 in 10.0 mi Calm Calm - N/A   Clear
11:55 PM 69.8 °F - 64.4 °F 83% 30.07 in 10.0 mi Calm Calm - N/A   Clear